Weather reports worldwide

Advertisment
Kyritz, Germany (10267): temperature & dewpoint: 06.11.2019 16:00:00 - 12.11.2019 16:00:00 (CET)Kyritz, Germany (10267): temperature 5cm & temperature -5cm: 06.11.2019 16:00:00 - 12.11.2019 16:00:00 (CET)Kyritz, Germany (10267): temperature -20cm & temperature -100cm: 06.11.2019 16:00:00 - 12.11.2019 16:00:00 (CET)Kyritz, Germany (10267): wind speed & gusts: 06.11.2019 16:00:00 - 12.11.2019 16:00:00 (CET)Kyritz, Germany (10267): wind direction: 06.11.2019 16:00:00 - 12.11.2019 16:00:00 (CET)Kyritz, Germany (10267): reduced air pressure: 06.11.2019 16:00:00 - 12.11.2019 16:00:00 (CET)Kyritz, Germany (10267): visibility: 06.11.2019 16:00:00 - 12.11.2019 16:00:00 (CET)Kyritz, Germany (10267): sunshine duration: 06.11.2019 16:00:00 - 12.11.2019 16:00:00 (CET)Kyritz, Germany (10267): precipitation: 06.11.2019 16:00:00 - 12.11.2019 16:00:00 (CET)
Date & Time tt [°C] td [°C] tt 5cm [°C] tt -5cm [°C] tt -20cm [°C] tt -100cm [°C] ff [km/h] ff [kn] fx [km/h] fx [kn] dd ppp [hPa] vv [km] sd [min] rr [mm]
12.11.2019 16:00:00 6,4 2,1 4,3 4,8 5,5 9,9 16 9 26 14 S 1004,8 58 60 0,0
12.11.2019 15:00:00 7,8 2,5 5,9 5,4 5,3 9,9 15 8 31 17 S 1004,9 50 60 0,0
12.11.2019 14:00:00 7,9 2,3 7,8 6,0 5,1 9,9 16 9 30 16 S 1004,2 53 38 0,0
12.11.2019 13:00:00 7,4 2,9 7,6 6,1 4,7 9,9 15 8 28 15 S 1005,2 44 47 0,0
12.11.2019 12:00:00 7,3 2,8 8,6 5,0 4,5 10,0 18 10 29 15 S 1005,3 36 60 0,0
12.11.2019 11:00:00 5,9 2,4 5,5 3,6 4,4 10,0 17 9 28 15 S 1005,9 23 59 0,0
12.11.2019 10:00:00 4,2 2,0 4,2 2,7 4,3 10,0 12 7 21 11 S 1005,8 15 22 0,0
12.11.2019 09:00:00 2,5 1,2 1,3 2,5 4,3 10,0 12 7 21 11 S 1005,6 12 0 0,0
12.11.2019 08:00:00 1,9 1,0 1,0 2,4 4,3 10,0 9 5 18 10 SSE 1005,3 9 0 0,0
12.11.2019 07:00:00 1,7 1,0 1,2 2,4 4,4 10,0 7 4 16 9 SSE 1005,0 8 0 0,0
12.11.2019 06:00:00 1,8 0,8 1,4 2,1 4,4 10,0 9 5 15 8 S 1004,7 12 0 0,0
12.11.2019 05:00:00 0,9 0,2 0,2 2,0 4,4 10,0 9 5 13 7 SSE 1004,5 9 0 0,0
12.11.2019 04:00:00 1,1 0,2 0,6 2,0 4,5 10,1 9 5 16 9 SSE 1004,8 10 0 0,0
12.11.2019 03:00:00 0,8 -0,2 0,2 1,9 4,6 10,1 10 6 18 10 SSE 1004,9 12 0 0,0
12.11.2019 02:00:00 0,9 -0,2 0,3 1,9 4,7 10,1 10 5 18 10 SSE 1005,2 12 0 0,0
12.11.2019 01:00:00 0,4 -0,4 -0,3 1,9 4,8 10,1 12 7 22 12 SSE 1005,2 10 0 0,0
12.11.2019 00:00:00 0,8 -0,2 0,1 2,1 4,9 10,1 17 9 25 14 SE 1005,4 9 0 0,0
11.11.2019 23:00:00 1,0 0,1 0,3 2,2 5,0 10,1 14 7 21 12 SE 1006,1 10 0 0,0
11.11.2019 22:00:00 1,1 0,3 0,5 2,2 5,2 10,1 16 8 27 14 SE 1006,0 11 0 0,0
11.11.2019 21:00:00 1,5 0,4 0,4 2,3 5,3 10,1 20 11 29 16 SSE 1006,6 16 0 0,0
11.11.2019 20:00:00 1,8 0,8 0,7 2,4 5,5 10,1 21 11 30 16 SSE 1006,9 13 0 0,0
11.11.2019 19:00:00 -0,5 -0,6 -2,6 2,5 5,8 10,2 7 4 8 5 SE 1007,4 1,8 0 0,0
11.11.2019 18:00:00 0,2 -0,1 -2,0 3,0 6,0 10,2 6 4 18 10 SSE 1007,7 5 0 0,0
11.11.2019 17:00:00 -0,1 -0,4 -1,3 3,7 6,1 10,2 10 5 18 10 SE 1008,1 3,7 0 0,0
11.11.2019 16:00:00 1,5 0,8 0,8 4,8 6,1 10,2 14 7 24 13 SE 1009,0 7 0 0,0
11.11.2019 15:00:00 1,9 1,0 1,9 5,3 6,0 10,2 16 9 26 14 SSE 1009,8 13 0 0,0
11.11.2019 14:00:00 2,6 1,8 3,4 5,3 6,0 10,2 14 7 25 13 SE 1010,5 10 0 0,0
11.11.2019 13:00:00 2,0 1,5 2,8 4,8 6,0 10,2 14 7 22 12 SSE 1011,0 7 0 0,0
11.11.2019 12:00:00 0,8 0,8 1,6 4,5 6,0 10,2 19 10 26 14 SSE 1011,8 5 0 0,0
11.11.2019 11:00:00 0,4 0,4 1,3 4,4 6,0 10,2 16 9 30 16 SSE 1012,2 0,8 0 0,0
11.11.2019 10:00:00 0,9 0,9 1,7 4,4 6,0 10,2 16 8 22 12 SSE 1012,5 0,3 0 0,0
11.11.2019 09:00:00 0,6 0,5 1,4 4,3 6,1 10,2 13 7 22 12 SSE 1012,9 0,2 0 0,0
11.11.2019 08:00:00 1,2 1,2 1,7 4,2 6,2 10,2 11 6 16 9 SSE 1013,5 0,4 0 0,0
11.11.2019 07:00:00 1,1 1,1 1,5 4,2 6,2 10,3 8 5 13 7 SE 1014,0 1,6 0 0,0
11.11.2019 06:00:00 1,0 1,0 1,5 4,3 6,3 10,3 7 4 11 6 SE 1014,2 0,3 0 0,0
11.11.2019 05:00:00 0,8 0,8 1,3 4,4 6,4 10,3 8 4 11 6 ESE 1014,4 0,2 0 0,0
11.11.2019 04:00:00 0,7 0,7 1,2 4,4 6,5 10,3 8 4 12 7 SE 1014,7 0,3 0 0,0
11.11.2019 03:00:00 0,7 0,7 1,2 4,6 6,7 10,3 8 4 13 7 SE 1015,1 0,3 0 0,0
11.11.2019 02:00:00 0,9 0,9 1,4 4,8 6,8 10,3 8 4 11 6 SE 1015,2 0,2 0 0,0
11.11.2019 01:00:00 0,8 0,8 1,4 5,0 6,9 10,3 9 5 13 7 SSE 1015,4 0,2 0 0,0
11.11.2019 00:00:00 1,4 1,4 2,0 5,3 7,0 10,3 8 5 10 6 SE 1015,5 0,2 0 0,0
10.11.2019 23:00:00 2,2 2,2 2,6 5,5 7,0 10,3 5 3 9 5 SE 1015,7 0,1 0 0,0
10.11.2019 22:00:00 2,7 2,7 3,0 5,7 7,1 10,3 7 4 10 5 SE 1016,0 0,1 0 0,0
10.11.2019 21:00:00 3,0 3,0 3,4 5,9 7,2 10,3 3 2 11 6 SE 1015,9 0,2 0 0,0
10.11.2019 20:00:00 2,9 2,9 3,2 6,0 7,3 10,4 5 3 9 5 SE 1015,9 0,1 0 0,0
10.11.2019 19:00:00 2,9 2,9 3,4 6,2 7,3 10,4 5 3 9 5 ESE 1015,9 0,1 0 0,0
10.11.2019 18:00:00 2,9 2,9 3,4 6,5 7,4 10,4 5 3 10 6 SE 1015,8 0,1 0 0,0
10.11.2019 17:00:00 3,5 3,5 3,9 6,9 7,4 10,4 5 3 13 7 ESE 1015,5 0,2 0 0,0
10.11.2019 16:00:00 4,0 3,9 4,6 7,4 7,3 10,4 7 4 14 8 E 1015,1 0,2 0 0,0
10.11.2019 15:00:00 4,9 4,1 5,1 7,7 7,2 10,4 7 4 11 6 E 1014,6 2,6 39 0,0
10.11.2019 14:00:00 6,6 4,3 7,5 8,7 6,9 10,4 6 3 12 6 ESE 1014,2 14 52 0,0
10.11.2019 13:00:00 5,4 4,5 6,5 7,9 6,6 10,4 4 2 10 6 E 1014,1 6 9 0,0
10.11.2019 12:00:00 4,8 4,0 6,7 7,1 6,3 10,4 3 2 7 4 SW 1013,7 4,8 1 0,0
10.11.2019 11:00:00 3,4 3,2 4,3 6,1 6,2 10,4 3 1 5 3 NW 1013,8 0,6 0 0,0
10.11.2019 10:00:00 1,9 1,8 3,3 5,0 6,2 10,4 3 1 5 3 SSW 1013,6 0,2 0 0,0
10.11.2019 09:00:00 1,1 1,0 1,7 4,1 6,2 10,4 3 2 6 3 NNE 1013,2 0,2 0 0,0
10.11.2019 08:00:00 0,5 0,5 0,5 3,8 6,4 10,5 1 1 10 6 NW 1012,7 0,3 0 0,0
10.11.2019 07:00:00 0,7 0,5 0,4 4,0 6,5 10,5 2 1 9 5 S 1012,2 0,1 0 0,0
10.11.2019 06:00:00 0,9 0,9 1,0 4,0 6,6 10,5 5 3 9 5 SSW 1011,6 0,1 0 0,0
10.11.2019 05:00:00 1,2 1,0 0,2 4,3 6,8 10,5 4 2 4 2 E 1011,1 0,1 0 0,0
10.11.2019 04:00:00 2,8 2,6 0,9 5,0 6,9 10,5 4 2 6 3 S 1010,6 0,4 0 0,0
10.11.2019 03:00:00 3,5 3,3 3,0 5,2 6,9 10,5 3 2 5 3 S 1010,2 2,9 0 0,0
10.11.2019 02:00:00 3,7 3,6 3,6 5,3 7,0 10,5 2 1 8 4 S 1010,0 2,8 0 0,0
10.11.2019 01:00:00 3,7 3,5 3,7 5,2 7,0 10,5 5 3 6 3 SSE 1009,9 5 0 0,0
10.11.2019 00:00:00 3,5 3,4 3,5 5,2 7,1 10,5 3 2 7 4 SW 1009,6 7 0 0,0
09.11.2019 23:00:00 2,9 2,8 2,7 5,0 7,3 10,5 4 2 7 4 SSE 1009,4 1,6 0 0,0
09.11.2019 22:00:00 2,1 2,1 2,0 4,7 7,5 10,5 5 3 7 4 S 1009,3 0,1 0 0,0
09.11.2019 21:00:00 2,0 1,9 0,1 5,1 7,7 10,5 6 3 7 4 S 1008,8 0,3 0 0,0
09.11.2019 20:00:00 2,8 2,6 0,4 5,5 7,9 10,5 4 2 8 4 S 1008,5 1,5 0 0,0
09.11.2019 19:00:00 3,8 3,3 2,0 6,3 8,1 10,5 8 5 12 7 SW 1008,4 17 0 0,0
09.11.2019 18:00:00 6,2 4,8 5,0 7,3 8,2 10,5 8 4 17 9 WSW 1008,3 38 0 0,0
09.11.2019 17:00:00 6,8 5,2 6,3 7,6 8,2 10,5 11 6 23 13 W 1007,8 45 0 0,0
09.11.2019 16:00:00 7,1 5,2 6,7 8,0 8,1 10,5 15 8 26 14 W 1007,3 59 0 0,0
09.11.2019 15:00:00 7,3 5,6 7,2 8,2 8,1 10,5 11 6 20 11 W 1006,9 39 0 0,0
09.11.2019 14:00:00 7,1 5,3 7,0 8,2 8,0 10,5 12 6 21 11 W 1006,6 28 0 0,0
09.11.2019 13:00:00 7,2 5,4 7,4 8,3 7,9 10,6 15 8 27 15 WNW 1006,1 24 0 0,0
09.11.2019 12:00:00 6,7 5,6 6,9 7,9 7,8 10,6 16 9 29 16 WNW 1006,2 19 0 0,1
09.11.2019 11:00:00 7,3 6,5 7,5 7,7 7,8 10,6 10 5 23 12 WNW 1006,4 7 0 0,4
09.11.2019 10:00:00 6,9 6,4 7,1 7,3 7,8 10,6 11 6 19 11 WNW 1006,4 3,1 0 0,3
09.11.2019 09:00:00 6,7 6,1 6,7 7,2 7,7 10,6 10 5 16 9 WNW 1006,2 4,3 0 0,0
09.11.2019 08:00:00 6,8 6,3 6,8 7,2 7,7 10,6 9 5 18 10 WNW 1005,7 4,9 0 0,0
09.11.2019 07:00:00 6,6 6,1 6,6 7,1 7,7 10,6 9 5 17 9 NW 1005,5 4,5 0 0,0
09.11.2019 06:00:00 6,7 6,2 6,7 7,2 7,7 10,6 11 6 19 10 NW 1005,3 3,8 0 0,1
09.11.2019 05:00:00 6,9 6,4 6,8 7,1 7,7 10,6 11 6 18 10 NNW 1005,2 4,9 0 0,2
09.11.2019 04:00:00 6,8 6,4 6,8 7,1 7,7 10,6 10 5 18 10 NNW 1005,3 3,2 0 0,2
09.11.2019 03:00:00 6,7 6,2 6,7 7,0 7,7 10,6 9 5 19 11 N 1005,5 6 0 0,0
09.11.2019 02:00:00 6,7 6,3 6,7 7,0 7,7 10,6 10 5 19 11 N 1005,8 6 0 0,0
09.11.2019 01:00:00 6,7 6,2 6,5 7,0 7,7 10,6 11 6 19 11 N 1005,8 6 0 0,0
09.11.2019 00:00:00 6,7 6,1 6,6 7,0 7,7 10,7 11 6 21 11 N 1006,3 8 0 0,0
08.11.2019 23:00:00 6,6 6,1 6,4 6,9 7,8 10,7 10 5 18 10 NNE 1006,6 9 0 0,3
08.11.2019 22:00:00 6,6 6,0 6,4 7,0 7,8 10,7 10 5 20 11 N 1007,2 10 0 0,3
08.11.2019 21:00:00 6,6 5,9 6,5 7,0 7,8 10,7 10 5 15 8 N 1007,3 21 0 0,0
08.11.2019 20:00:00 6,6 5,9 6,3 7,1 7,8 10,7 9 5 22 12 NNE 1007,2 24 0 0,2
08.11.2019 19:00:00 6,9 6,0 6,5 7,2 7,8 10,7 14 7 20 11 N 1007,2 13 0 1,4
08.11.2019 18:00:00 7,0 6,0 6,6 7,4 7,8 10,7 10 5 16 9 N 1007,6 13 0 0,7
08.11.2019 17:00:00 7,5 5,7 7,0 7,6 7,8 10,7 9 5 13 7 N 1007,8 40 0 0,0
08.11.2019 16:00:00 7,7 6,2 7,3 7,9 7,7 10,7 9 5 15 8 N 1007,5 41 0 0,0
08.11.2019 15:00:00 8,0 6,6 7,8 8,2 7,5 10,7 6 3 10 6 NNE 1007,9 21 0 0,0
08.11.2019 14:00:00 8,0 6,2 8,2 8,3 7,2 10,7 8 4 11 6 NE 1007,9 43 0 0,0
08.11.2019 13:00:00 7,9 6,1 8,2 8,2 6,9 10,8 5 3 10 5 E 1008,2 40 0 0,0
08.11.2019 12:00:00 7,5 6,2 8,0 7,3 6,7 10,8 4 2 8 4 NNE 1008,3 24 3 0,0
08.11.2019 11:00:00 6,0 5,4 6,6 6,0 6,6 10,8 3 2 6 3 NNE 1008,7 20 0 0,0
08.11.2019 10:00:00 4,3 4,3 4,3 4,6 6,6 10,8 3 2 7 4 S 1008,8 10 0 0,0
08.11.2019 09:00:00 2,4 2,3 1,8 3,8 6,7 10,8 6 3 9 5 SE 1008,5 0,6 0 0,0
08.11.2019 08:00:00 1,6 1,6 -0,1 3,4 7,0 10,8 5 3 8 5 ESE 1008,1 8 0 0,0
08.11.2019 07:00:00 1,3 1,3 -1,0 3,7 7,2 10,8 3 2 5 3 SE 1007,5 0,9 0 0,0
08.11.2019 06:00:00 2,1 2,0 -0,6 4,2 7,5 10,8 2 1 4 2 SSE 1006,7 8 0 0,0
08.11.2019 05:00:00 2,8 2,6 -0,2 4,7 7,7 10,8 3 2 6 4 SSW 1006,8 0,5 0 0,0
08.11.2019 04:00:00 4,5 4,1 1,1 5,4 7,9 10,8 5 3 11 6 SW 1006,3 21 0 0,0
08.11.2019 03:00:00 4,8 4,1 3,3 6,0 8,0 10,8 9 5 15 8 S 1006,1 21 0 0,0
08.11.2019 02:00:00 6,2 5,0 4,0 6,4 8,1 10,8 9 5 15 8 SSW 1005,7 37 0 0,0
08.11.2019 01:00:00 6,4 5,2 4,9 6,5 8,3 10,8 10 5 17 9 S 1004,7 36 0 0,0
08.11.2019 00:00:00 7,4 5,7 6,1 6,9 8,4 10,8 13 7 19 10 S 1004,3 42 0 0,0
07.11.2019 23:00:00 7,4 5,6 5,8 7,3 8,4 10,8 14 8 23 13 S 1003,8 41 0 0,0
07.11.2019 22:00:00 8,2 6,2 7,4 7,4 8,5 10,8 15 8 20 11 SSE 1003,5 41 0 0,0
07.11.2019 21:00:00 8,0 6,8 7,2 7,5 8,5 10,8 13 7 19 10 SE 1003,1 30 0 0,0
07.11.2019 20:00:00 8,0 7,1 7,5 7,4 8,6 10,8 14 8 21 11 SE 1003,1 21 0 0,0
07.11.2019 19:00:00 7,8 7,3 7,3 7,4 8,7 10,8 14 8 21 11 ESE 1003,1 10 0 0,0
07.11.2019 18:00:00 7,0 6,8 5,9 7,4 8,9 10,8 11 6 16 9 E 1002,9 3,7 0 0,0
07.11.2019 17:00:00 6,3 5,9 4,4 8,1 8,9 10,8 9 5 14 8 E 1002,9 3,6 0 0,0
07.11.2019 16:00:00 8,3 7,5 7,5 9,3 8,8 10,8 12 6 18 10 SE 1002,5 8 7 0,0
07.11.2019 15:00:00 8,9 8,0 9,0 9,4 8,7 10,8 11 6 19 10 ESE 1002,4 8 0 0,0
07.11.2019 14:00:00 8,5 7,6 9,0 9,4 8,5 10,8 13 7 20 11 ESE 1002,4 7 0 0,0
07.11.2019 13:00:00 8,1 7,3 8,6 9,1 8,4 10,8 11 6 21 11 ESE 1002,5 6 0 0,0
07.11.2019 12:00:00 7,8 6,9 8,3 8,8 8,2 10,8 12 7 18 10 ESE 1002,8 7 0 0,0
07.11.2019 11:00:00 6,6 6,1 7,8 8,1 8,1 10,8 9 5 13 7 E 1003,2 4,3 0 0,0
07.11.2019 10:00:00 6,2 5,8 6,6 7,4 8,1 10,8 8 4 11 6 ENE 1003,3 6 0 0,0
07.11.2019 09:00:00 5,3 4,8 5,7 6,9 8,1 10,8 5 3 7 4 ENE 1003,5 5 0 0,0
07.11.2019 08:00:00 5,0 4,6 5,1 6,8 8,1 10,8 3 2 5 3 NNE 1003,2 6 0 0,0
07.11.2019 07:00:00 4,9 4,6 5,1 6,8 8,2 10,8 4 2 8 4 S 1003,1 3,3 0 0,0
07.11.2019 06:00:00 4,8 4,6 5,0 6,8 8,3 10,8 3 2 8 4 SW 1002,9 3,9 0 0,0
07.11.2019 05:00:00 5,0 4,7 5,2 6,7 8,4 10,8 5 3 13 7 WSW 1003,0 6 0 0,0
07.11.2019 04:00:00 5,1 4,9 5,2 6,5 8,5 10,8 7 4 14 7 WSW 1003,0 4,9 0 0,0
07.11.2019 03:00:00 4,3 4,3 2,8 6,6 8,6 10,8 6 3 10 5 SW 1003,1 5 0 0,0
07.11.2019 02:00:00 5,7 5,4 5,5 7,3 8,7 10,8 6 3 9 5 SSW 1003,1 15 0 0,0
07.11.2019 01:00:00 5,6 5,3 5,5 7,3 8,8 10,8 4 2 10 5 S 1003,2 11 0 0,0
07.11.2019 00:00:00 5,6 5,4 5,6 7,3 9,0 10,8 7 4 8 5 SSW 1003,3 12 0 0,0
06.11.2019 23:00:00 5,4 5,2 5,2 7,4 9,1 10,8 7 4 11 6 SW 1003,2 12 0 0,0
06.11.2019 22:00:00 6,5 5,8 6,1 8,0 9,2 10,8 7 4 19 11 WSW 1003,0 26 0 0,0
06.11.2019 21:00:00 6,7 6,2 6,7 8,1 9,4 10,8 10 6 16 9 WSW 1002,7 31 0 0,0
06.11.2019 20:00:00 6,8 6,3 6,7 8,4 9,5 10,8 6 3 12 6 WSW 1002,0 30 0 0,0
06.11.2019 19:00:00 7,1 6,5 7,1 8,7 9,5 10,8 5 3 8 5 WSW 1002,0 29 0 0,0
06.11.2019 18:00:00 7,4 6,6 7,2 9,0 9,6 10,8 4 2 11 6 WSW 1001,8 38 0 0,0
06.11.2019 17:00:00 7,6 6,7 7,4 9,3 9,7 10,8 4 2 10 5 W 1001,4 56 0 0,0
06.11.2019 16:00:00 7,8 6,6 7,6 9,7 9,7 10,8 5 3 9 5 W 1001,0 54 0 0,0

tt = temperature
td = dewpoint
tt 5cm = temperature 5cm
tt -5cm = temperature -5cm
tt -20cm = temperature -20cm
tt -100cm = temperature -100cm
ff = wind speed
fx = gusts
dd = wind direction
ppp = reduced air pressure
vv = visibility
sd = sunshine duration
rr = precipitation

Next stations